CAPE
2 3 4 2 2 2 1 1 2 3 2 1 1 1 1 2 1 1 1 1 0 0 0 0 0 0 0 0 0 0 0 0 0 0 0 0 0 0 0 0 0 0 0 5 9 297 260
1 2 2 2 2 1 1 1 1 1 1 1 1 1 0 1 1 1 0 0 0 0 0 0 0 0 0 0 0 0 0 0 0 0 0 0 0 0 0 0 0 0 0 0 2 189 312
2 2 1 1 1 1 1 1 1 1 1 1 1 1 1 1 1 0 0 1 1 0 0 0 0 0 0 0 0 0 0 0 0 0 0 0 0 0 0 0 0 0 0 0 0 29 120
2 2 2 2 1 1 1 1 1 1 1 1 1 1 1 1 0 0 1 0 0 0 0 0 0 0 0 0 0 0 0 0 0 0 0 0 0 0 0 0 0 0 0 0 0 73 227
1 1 2 2 2 1 1 2 2 1 1 1 1 1 1 0 1 0 0 0 0 0 0 0 0 0 0 0 0 0 0 0 0 0 0 0 0 0 0 0 0 0 2 0 0 4 154
1 1 1 1 1 1 1 1 1 2 1 1 1 1 1 1 1 0 0 0 0 0 0 0 0 0 0 0 0 0 0 0 0 0 0 0 0 0 0 0 11 0 0 0 0 0 179
2 2 2 2 2 1 1 1 1 1 1 1 1 1 1 1 1 0 0 0 0 0 0 0 0 0 0 0 0 0 0 0 0 0 0 0 0 0 0 0 0 0 0 0 0 32 110
2 1 1 2 1 1 1 1 1 1 1 2 1 1 1 1 1 1 0 0 0 0 0 0 0 0 0 0 0 0 0 0 0 0 0 0 0 0 0 0 0 0 0 0 0 7 24
1 2 1 2 2 1 1 1 1 1 1 1 1 1 1 1 1 0 0 0 0 0 0 0 0 0 0 0 0 0 0 0 0 0 0 0 0 0 0 0 0 0 0 0 0 39 300
1 2 1 1 1 1 2 2 1 1 1 1 1 1 1 1 0 0 0 0 0 0 0 0 0 0 0 0 0 0 0 0 0 0 0 0 0 0 0 0 0 0 0 0 0 0 16
1 1 3 2 2 1 2 1 2 1 1 1 2 2 2 2 0 0 0 0 0 0 0 0 0 0 0 0 0 0 0 0 0 0 0 0 0 0 0 0 0 0 0 0 0 0 24
1 1 2 1 2 2 2 1 1 2 2 2 1 3 2 0 2 0 0 0 0 0 0 0 0 0 0 0 0 0 0 0 0 0 0 0 0 0 0 0 0 0 0 0 0 0 13
1 2 2 1 2 1 1 1 1 1 1 2 1 2 3 0 0 0 0 0 0 0 0 0 0 0 0 0 0 0 0 0 0 0 0 0 0 0 0 0 0 0 0 0 0 0 0
2 2 1 1 1 1 1 1 1 1 2 1 1 1 2 0 0 0 0 0 0 0 0 0 0 0 0 0 0 0 0 0 0 0 0 0 0 0 0 0 0 0 0 0 0 0 0
2 1 2 2 2 1 2 2 1 1 1 1 0 0 0 0 0 0 0 0 0 0 0 0 0 0 0 0 0 0 0 0 0 0 0 0 0 0 0 0 0 0 0 0 0 0 0
1 2 2 2 1 1 2 1 1 1 1 1 0 0 0 0 0 0 0 0 0 0 0 0 0 0 0 0 0 0 0 0 0 0 0 0 0 0 0 0 0 0 0 0 0 0 0
2 2 2 2 1 1 1 1 1 1 1 0 0 0 0 0 0 0 0 0 0 0 0 0 0 0 0 0 0 0 0 0 0 0 0 0 0 0 0 0 0 0 0 0 0 0 0
2 1 2 2 2 2 2 1 1 1 0 0 0 0 0 0 0 0 0 0 0 0 0 0 0 0 0 0 0 0 0 0 0 0 0 0 0 0 0 0 0 0 0 0 0 0 0
2 2 2 1 1 2 2 1 0 0 1 0 0 0 0 0 0 0 0 0 0 0 0 0 0 0 0 0 0 0 0 0 0 0 0 0 0 0 0 0 0 0 0 0 0 0 0
2 2 2 2 1 1 2 1 1 1 0 0 0 0 0 0 0 0 0 0 0 0 0 0 0 0 0 0 0 5 2 0 0 0 0 0 0 0 0 0 0 0 0 0 0 0 0
1 1 1 2 2 2 2 1 1 0 0 0 0 0 0 0 0 0 0 0 0 0 0 0 18 92 0 0 3 42 28 3 0 0 0 0 0 0 0 0 0 0 0 0 0 0 0
2 1 1 1 2 2 1 2 1 1 0 0 0 0 0 0 0 0 0 0 0 0 25 126 115 31 21 14 0 61 48 23 32 19 0 0 0 0 0 0 0 0 0 0 0 3 0
1 1 1 1 1 2 1 1 1 1 0 0 0 0 0 0 0 0 0 0 0 18 118 94 157 75 95 93 66 68 57 58 55 65 29 0 0 0 0 0 0 0 0 2 3 12 18
2 1 1 1 1 2 2 1 1 1 1 0 0 0 0 0 0 3 0 3 15 34 142 253 150 153 129 128 88 147 118 127 90 15 0 28 0 0 0 0 0 0 28 82 56 154 168
3 4 3 3 2 2 1 2 2 1 1 0 0 0 0 0 0 0 0 8 34 101 106 134 95 94 116 186 142 100 136 147 162 95 62 1 0 0 0 0 0 0 27 143 156 53 261
3 3 1 1 1 1 1 1 1 1 1 0 0 0 0 0 0 0 0 0 50 161 122 49 119 149 153 160 246 96 35 65 124 182 28 6 5 10 0 0 0 0 97 197 186 116 203
5 3 2 1 2 1 1 1 1 2 1 0 0 0 0 0 0 0 0 0 8 41 90 145 119 285 187 284 268 197 164 175 129 130 73 71 119 94 30 9 0 2 137 189 131 57 196
1 1 1 1 1 2 0 0 1 1 1 0 0 0 0 0 0 0 0 0 0 0 16 2 242 260 293 372 318 254 184 167 117 44 13 45 101 126 69 144 28 181 17 213 75 0 78
2 1 1 0 0 0 1 0 2 1 1 1 0 0 0 0 0 0 0 0 0 0 0 0 10 62 117 187 125 80 132 44 28 43 4 0 7 163 128 103 35 39 40 1 0 0 46
CIN
-0 -0 -0 -0 -0 -0 -0 -0 -0 -0 -0 -0 -0 -0 -0 -0 -0 -0 -0 -0 -0 -0 -0 -0 -0 -0 -0 -0 -0 -0 -0 -0 -0 -0 -0 -0 -0 -0 -0 -0 -0 -0 -0 -26 -55 -66 -59
-0 -0 -0 -0 -0 -0 -0 -0 -0 -0 -0 -0 -0 -0 -0 -0 -0 -0 -0 -0 -0 -0 -0 -0 -0 -0 -0 -0 -0 -0 -0 -0 -0 -0 -0 -0 -0 -0 -0 -0 -0 -0 -0 -0 -12 -68 -67
-1 -0 -0 -0 -0 -0 -0 -0 -0 -0 -0 -0 -0 -0 -0 -0 -0 -0 -0 -0 -0 -0 -0 -0 -0 -0 -0 -0 -0 -0 -0 -0 -0 -0 -0 -0 -0 -0 -0 -0 -0 -0 -0 -0 -0 -51 -50
-1 -1 -0 -0 -0 -0 -0 -0 -0 -0 -0 -0 -0 -0 -0 -0 -0 -0 -0 -0 -0 -0 -0 -0 -0 -0 -0 -0 -0 -0 -0 -0 -0 -0 -0 -0 -0 -0 -0 -0 -0 -0 -8 -0 -0 -54 -72
-1 -0 -0 -0 -0 -0 -0 -0 -0 -0 -0 -0 -0 -0 -0 -0 -0 -0 -0 -0 -0 -0 -0 -0 -0 -0 -0 -0 -0 -0 -0 -0 -0 -0 -0 -0 -0 -0 -0 -0 -0 -0 -22 -0 -0 -34 -55
-0 -0 -0 -0 -0 -0 -0 -0 -0 -0 -0 -0 -0 -0 -0 -0 -0 -0 -0 -0 -0 -0 -0 -0 -0 -0 -0 -0 -0 -0 -0 -0 -0 -0 -0 -0 -0 -0 -0 -0 -13 -0 -0 -0 -0 -0 -70
-0 -0 -0 -0 -0 -0 -0 -0 -0 -0 -0 -0 -0 -0 -0 -0 -0 -0 -0 -0 -0 -0 -0 -0 -0 -0 -0 -0 -0 -0 -0 -0 -0 -0 -0 -0 -0 -0 -0 -0 -0 -0 -0 -0 -0 -46 -25
-0 -0 -0 -0 -0 -0 -0 -0 -0 -0 -0 -0 -0 -0 -0 -0 -0 -0 -0 -0 -0 -0 -0 -0 -0 -0 -0 -0 -0 -0 -0 -0 -0 -0 -0 -0 -0 -0 -0 -0 -0 -0 -0 -0 -6 -46 -32
-0 -0 -0 -0 -0 -0 -0 -0 -0 -0 -0 -0 -0 -0 -0 -0 -0 -0 -0 -0 -0 -0 -0 -0 -0 -0 -0 -0 -0 -0 -0 -0 -0 -0 -0 -0 -0 -0 -0 -0 -0 -0 -0 -0 -0 -54 -82
-1 -0 -0 -0 -0 -0 -0 -0 -0 -0 -0 -0 -0 -0 -1 -0 -0 -0 -0 -0 -0 -0 -0 -0 -0 -0 -0 -0 -0 -0 -0 -0 -0 -0 -0 -0 -0 -0 -0 -0 -0 -0 -0 -0 -0 -0 -27
-0 -0 -0 -0 -0 -0 -0 -0 -0 -0 -0 -0 -0 -1 -1 -1 -0 -0 -0 -0 -0 -0 -0 -0 -0 -0 -0 -0 -0 -0 -0 -0 -0 -0 -0 -0 -0 -0 -0 -0 -0 -0 -0 -0 -0 -0 -44
-0 -0 -0 -0 -0 -0 -0 -0 -0 -0 -0 -0 -0 -0 -0 -0 -0 -0 -0 -0 -0 -0 -0 -0 -0 -0 -0 -0 -0 -0 -0 -0 -0 -0 -0 -0 -0 -0 -0 -0 -0 -0 -0 -0 -0 -0 -13
-0 -0 -0 -0 -0 -0 -0 -0 -0 -0 -0 -0 -0 -0 -0 -0 -0 -0 -0 -0 -0 -0 -0 -0 -0 -0 -0 -0 -0 -0 -0 -0 -0 -0 -0 -0 -0 -0 -0 -0 -0 -0 -0 -0 -0 -0 -0
-0 -0 -0 -0 -0 -0 -0 -0 -0 -0 -0 -0 -0 -0 -0 -0 -0 -0 -0 -0 -0 -0 -0 -0 -0 -0 -0 -0 -0 -0 -0 -0 -0 -0 -0 -0 -0 -0 -0 -0 -0 -0 -0 -0 -0 -0 -0
-0 -1 -0 -0 -0 -0 -0 -0 -0 -0 -0 -0 -0 -0 -0 -0 -0 -0 -0 -0 -0 -0 -0 -0 -0 -0 -0 -0 -0 -0 -0 -0 -0 -0 -0 -0 -0 -0 -0 -0 -0 -0 -0 -0 -0 -0 -0
-0 -0 -0 -1 -0 -0 -0 -0 -0 -0 -0 -0 -0 -0 -0 -0 -0 -0 -0 -0 -0 -0 -0 -0 -0 -0 -0 -0 -0 -0 -0 -0 -0 -0 -0 -0 -0 -0 -0 -0 -0 -0 -0 -0 -0 -0 -0
-0 -0 -0 -0 -0 -0 -0 -0 -0 -0 -0 -0 -0 -0 -0 -0 -0 -0 -0 -0 -0 -0 -0 -0 -0 -0 -0 -0 -0 -0 -0 -0 -0 -0 -0 -0 -0 -0 -0 -0 -0 -0 -0 -0 -0 -0 -0
-0 -0 -0 -0 -0 -0 -0 -0 -0 -0 -0 -0 -0 -0 -0 -0 -0 -0 -0 -0 -0 -0 -0 -0 -0 -0 -0 -0 -0 -0 -0 -0 -0 -0 -0 -0 -0 -0 -0 -0 -0 -0 -0 -0 -0 -0 -0
-0 -0 -0 -0 -0 -0 -0 -0 -0 -0 -0 -0 -0 -0 -0 -0 -0 -0 -0 -0 -0 -0 -0 -0 -0 -0 -0 -0 -0 -0 -0 -0 -0 -0 -0 -0 -0 -0 -0 -0 -0 -0 -0 -0 -0 -0 -0
-0 -0 -0 -0 -0 -0 -0 -0 -0 -0 -0 -0 -0 -0 -0 -0 -0 -0 -0 -0 -0 -0 -0 -0 -0 -0 -0 -0 -0 -66 -71 -0 -0 -0 -0 -0 -0 -0 -0 -0 -0 -0 -0 -0 -0 -0 -0
-0 -0 -0 -0 -1 -0 -0 -0 -0 -0 -0 -0 -0 -0 -0 -0 -0 -0 -0 -0 -0 -0 -0 -0 -140 -132 -0 -0 -81 -109 -182 -239 -0 -0 -0 -0 -0 -0 -0 -0 -0 -0 -0 -0 -0 -0 -0
-0 -1 -0 -0 -0 -0 -0 -0 -0 -0 -0 -0 -0 -0 -0 -0 -0 -0 -0 -0 -0 -0 -128 -89 -87 -166 -178 -120 -0 -111 -178 -178 -142 -306 -0 -0 -0 -0 -0 -0 -0 -0 -0 -1 -0 -123 -0
-0 -0 -0 -0 -0 -0 -0 -0 -1 -1 -0 -0 -0 -0 -0 -0 -0 -0 -0 -0 -0 -163 -118 -181 -150 -150 -124 -208 -323 -368 -429 -419 -318 -214 -241 -0 -0 -0 -0 -0 -0 -0 -0 -46 -96 -122 -97
-0 -0 -0 -0 -0 -0 -0 -0 -0 -0 -0 -0 -0 -0 -0 -0 -0 -38 -0 -60 -147 -186 -150 -171 -220 -165 -256 -442 -463 -446 -422 -404 -414 -424 -0 -244 -0 -0 -0 -0 -0 -0 -274 -235 -165 -154 -165
-0 -0 -0 -0 -0 -0 -0 -0 -0 -0 -0 -0 -0 -0 -0 -0 -0 -0 -0 -155 -173 -189 -198 -198 -248 -371 -430 -351 -213 -185 -199 -177 -204 -314 -310 -76 -0 -0 -0 -0 -0 -0 -206 -172 -123 -93 -228
-0 -1 -0 -0 -0 -0 -0 -0 -0 -0 -0 -0 -0 -0 -0 -0 -0 -0 -0 -0 -136 -124 -151 -195 -314 -406 -361 -250 -147 -80 -76 -107 -104 -175 -409 -377 -442 -182 -0 -0 -0 -0 -298 -432 -346 -77 -315
-0 -0 -0 -0 -0 -0 -0 -0 -0 -0 -0 -0 -0 -0 -0 -0 -0 -0 -0 -0 -49 -173 -145 -175 -220 -196 -318 -162 -100 -98 -76 -241 -64 -88 -130 -111 -154 -104 -107 -20 -0 -111 -414 -441 -92 -128 -410
-0 -0 -0 -0 -0 -0 -0 -0 -0 -0 -0 -0 -0 -0 -0 -0 -0 -0 -0 -0 -0 -0 -127 -96 -140 -177 -168 -85 -78 -108 -97 -182 -168 -259 -221 -133 -98 -114 -186 -82 -54 -388 -405 -155 -153 -0 -462
-0 -0 -0 -0 -0 -0 -0 -0 -0 -0 -0 -0 -0 -0 -0 -0 -0 -0 -0 -0 -0 -0 -0 -0 -248 -189 -169 -125 -188 -218 -123 -269 -247 -90 -342 -49 -156 -162 -204 -167 -431 -465 -346 -174 -0 -0 -463
Wind_Speed
33 33 32 32 31 30 30 30 29 29 28 28 27 27 26 26 26 25 25 25 25 24 24 23 22 21 17 17 20 15 15 8 8 6 2 4 11 13 14 15 15 10 19 14 11 10 11
34 33 33 33 32 31 31 31 31 30 29 29 28 28 27 27 26 26 26 26 26 25 23 21 21 20 17 20 16 12 13 8 3 2 1 3 9 13 13 13 12 16 21 17 7 9 9
35 34 34 33 33 32 32 32 31 31 31 30 29 29 28 28 27 27 27 27 26 25 22 19 19 17 19 26 14 18 16 10 4 4 3 4 8 13 17 15 16 18 16 13 10 7 8
36 35 34 34 34 33 33 32 32 32 32 31 30 29 29 29 28 28 28 28 27 23 19 18 17 15 22 18 18 23 15 11 8 7 6 8 7 12 12 15 15 16 13 15 13 7 9
36 36 35 35 34 34 33 33 33 33 32 32 31 30 29 29 28 28 28 27 23 18 16 15 16 16 21 19 19 17 9 10 6 6 5 7 8 11 13 13 13 16 14 18 21 14 9
37 36 35 35 35 34 34 33 33 33 33 33 32 31 30 29 28 27 27 22 16 15 15 16 18 19 21 14 15 13 7 8 8 1 4 8 10 9 10 11 10 14 17 19 20 15 9
38 37 36 35 35 35 34 34 34 34 34 33 32 31 30 29 27 25 21 18 19 19 19 17 17 17 18 18 15 15 10 6 8 7 4 6 3 1 4 9 11 14 16 20 20 14 13
38 38 37 37 37 36 35 35 35 34 34 33 32 31 30 29 27 25 21 19 18 18 23 28 29 28 24 17 17 16 7 9 10 4 3 6 3 3 5 9 13 15 18 20 20 20 13
38 38 37 37 37 36 36 35 35 35 34 32 31 31 30 28 27 22 21 20 20 20 21 22 20 24 24 12 17 16 7 13 12 7 5 4 4 3 11 15 17 15 16 18 21 18 15
38 38 37 37 37 36 35 35 35 34 33 32 31 30 29 27 22 20 21 17 22 15 20 20 19 21 15 13 18 15 8 11 14 6 9 11 11 6 11 16 11 14 13 20 26 17 17
38 37 37 37 36 35 35 34 33 32 31 32 30 30 26 21 21 20 16 19 12 15 21 16 15 15 15 12 12 14 14 13 10 11 10 9 10 11 3 6 7 7 21 23 22 16 13
37 37 37 36 34 33 33 32 31 31 30 30 29 28 24 21 20 20 20 17 14 18 22 16 13 14 12 17 14 10 10 12 12 10 13 9 13 9 7 12 8 17 19 18 16 15 17
36 35 36 32 29 30 30 30 30 30 29 29 28 26 22 18 19 15 17 13 17 19 16 15 15 12 13 14 13 10 7 9 11 11 13 17 20 17 12 21 16 13 17 19 19 20 21
34 32 31 25 22 25 26 27 27 27 27 27 24 19 18 24 16 16 13 15 19 16 17 15 14 10 13 11 15 12 8 9 13 10 11 12 16 13 11 11 14 16 13 14 17 18 16
32 30 27 24 21 22 23 24 24 25 25 24 19 15 15 18 26 16 15 19 17 14 16 17 13 13 13 12 13 13 12 11 11 11 12 11 17 17 13 11 11 12 14 13 14 17 19
30 29 28 26 23 21 22 24 24 25 25 21 15 14 14 14 4 14 16 18 15 14 16 15 14 15 14 13 13 13 12 15 16 14 15 13 16 16 15 13 15 14 10 16 16 18 21
29 28 28 27 25 23 23 23 25 25 25 18 13 12 14 10 10 16 19 19 18 18 16 16 16 17 16 16 14 13 14 17 12 14 14 15 16 17 16 14 12 13 15 15 15 16 16
28 27 27 27 25 24 24 23 25 25 23 15 13 12 11 10 15 17 19 19 20 23 24 22 17 15 15 15 15 14 12 13 9 10 11 16 16 23 26 23 19 18 14 13 16 18 18
28 27 27 27 26 25 25 24 24 25 20 15 11 10 11 14 16 18 18 20 21 23 21 16 16 15 16 15 15 14 19 20 14 11 14 12 19 26 27 23 17 17 15 16 19 17 12
28 27 27 26 26 25 25 24 24 24 18 14 13 11 13 14 15 14 16 19 19 18 21 17 17 16 15 14 15 15 17 14 15 18 16 11 18 17 17 18 15 15 17 17 14 16 13
28 28 27 27 26 25 24 25 25 25 19 14 14 12 12 12 16 17 16 18 20 19 17 16 16 17 14 15 16 16 17 15 12 16 14 15 18 19 21 21 20 25 26 17 13 12 15
28 27 27 27 26 25 24 25 25 25 20 15 14 14 15 15 15 15 14 15 15 17 17 15 12 12 14 15 15 15 15 15 15 15 13 18 19 19 27 20 19 22 20 17 17 17 18
26 25 25 25 25 24 24 24 25 25 22 17 17 16 17 16 15 13 11 14 15 16 15 16 14 14 13 15 16 15 17 15 14 15 16 17 18 20 26 20 16 24 15 14 20 17 21
24 24 23 24 24 24 24 24 25 25 24 19 17 17 17 17 14 14 12 16 21 19 21 19 17 16 15 12 11 15 16 18 16 16 15 16 16 18 22 15 20 18 17 17 18 25 16
23 23 23 24 24 25 26 27 27 26 25 22 17 16 16 18 20 23 18 20 23 21 23 24 19 16 16 15 20 21 22 24 24 22 16 17 16 20 21 21 21 19 16 15 14 22 12
21 21 22 23 24 24 25 26 27 27 26 22 17 12 16 18 16 18 19 18 17 19 21 23 18 16 16 18 20 24 27 24 27 26 20 17 18 21 19 24 26 20 16 15 13 23 16
17 18 19 23 24 25 24 22 25 26 26 24 15 11 16 20 21 16 16 14 14 17 19 21 23 21 19 21 21 22 25 22 28 28 27 24 23 27 25 27 26 20 15 14 14 15 15
16 16 15 16 19 21 24 24 22 24 25 24 12 10 14 20 27 16 22 17 15 15 16 18 19 20 19 18 19 19 24 23 25 24 24 20 20 27 24 27 33 16 15 16 20 16 12
16 15 14 14 14 13 15 16 22 20 24 21 14 15 14 18 24 23 31 35 31 25 23 19 19 19 17 17 17 18 20 18 22 25 22 25 20 21 20 24 21 21 22 19 17 17 16
Wind_Direction
344 342 339 334 330 328 325 323 321 316 312 309 305 302 299 296 294 292 290 288 287 286 279 271 270 276 294 291 270 312 317 12 87 123 125 323 325 328 314 318 315 354 309 346 47 68 67
343 340 337 335 331 326 324 323 321 317 312 308 304 300 297 294 292 290 287 285 284 283 281 278 277 280 292 273 287 318 312 325 36 90 166 332 340 344 322 322 335 322 304 297 48 65 57
341 338 335 333 330 329 324 320 320 319 313 308 303 299 296 293 290 287 285 283 281 279 281 284 285 300 286 223 297 275 289 307 16 302 262 333 339 330 310 307 318 306 321 331 4 60 32
341 337 334 332 330 326 324 322 317 317 315 308 304 298 295 292 289 286 283 281 277 277 284 286 295 311 268 289 282 258 288 296 303 300 283 309 354 328 337 314 318 323 334 318 347 41 15
338 336 332 332 330 327 321 319 318 315 313 312 304 299 294 292 289 286 282 279 280 286 289 294 298 297 270 285 272 273 303 299 304 297 288 320 328 323 321 318 328 329 315 314 305 329 357
335 333 330 332 330 325 322 319 315 316 313 313 304 298 294 291 288 286 281 281 289 291 288 293 286 281 267 294 284 280 299 295 298 40 277 290 299 315 321 330 330 323 319 314 313 333 358
334 332 329 327 325 323 320 319 315 312 313 314 302 298 293 289 286 285 284 281 278 278 275 277 284 275 272 281 283 262 276 284 298 271 235 289 303 210 73 350 350 335 330 315 312 348 342
330 330 330 330 329 325 322 319 316 312 310 309 301 296 292 287 283 279 275 269 275 282 272 259 256 252 261 284 273 262 269 267 270 250 267 285 200 180 349 344 329 328 318 314 298 312 341
329 331 331 331 328 325 323 320 314 312 307 303 299 295 290 285 279 273 265 265 277 279 276 271 272 261 259 282 272 264 249 258 264 261 241 240 320 285 296 303 305 319 321 314 298 328 340
330 330 330 332 328 323 320 316 313 308 304 300 294 292 288 284 271 267 259 271 274 279 274 271 267 265 268 272 272 272 257 256 271 243 263 278 278 307 289 290 319 306 342 321 296 327 312
330 328 330 332 328 320 317 312 307 303 300 297 289 288 283 277 267 254 262 275 279 274 262 275 271 276 260 265 286 266 257 255 269 270 265 266 280 271 257 301 340 341 319 312 320 332 332
330 327 330 327 320 316 311 308 304 301 298 293 285 281 276 267 259 256 259 265 267 262 258 272 275 262 254 258 281 273 261 261 277 286 273 272 284 287 278 306 340 317 321 330 337 334 317
327 324 327 317 308 309 307 306 304 301 298 293 283 268 264 261 250 261 260 247 252 253 272 268 266 267 256 257 277 273 249 239 268 265 270 270 268 275 288 280 298 321 321 317 321 320 313
322 320 316 305 300 303 303 303 303 300 298 296 287 275 264 239 251 258 245 244 247 261 263 279 277 273 264 266 265 274 262 237 266 278 277 264 267 265 279 282 294 311 328 326 317 331 329
320 315 309 305 301 303 302 302 302 302 300 296 280 282 269 250 224 250 236 240 254 256 276 275 277 270 274 272 277 266 270 258 250 253 277 269 267 274 278 282 303 319 324 337 326 332 327
315 313 313 309 305 304 304 305 304 304 304 292 272 271 275 262 234 250 243 249 260 264 283 286 275 278 274 276 281 267 271 278 264 257 258 289 272 271 276 281 294 305 338 322 322 316 320
311 311 311 311 308 307 307 307 308 308 307 287 297 283 275 263 259 252 246 250 260 265 285 282 282 282 283 284 281 283 280 283 261 261 256 263 278 270 276 277 283 306 314 325 327 322 323
309 308 309 312 310 309 310 310 311 312 307 306 291 285 276 292 256 259 255 259 267 267 279 278 283 285 290 299 298 286 278 279 274 245 253 257 278 268 266 274 287 295 307 318 315 315 312
308 308 309 311 311 311 313 313 313 314 304 233 301 302 282 284 261 262 269 269 270 271 275 281 282 288 297 299 304 304 293 280 268 262 255 255 270 266 269 276 283 288 300 317 315 310 310
309 309 309 310 311 311 314 315 316 317 306 279 289 305 286 284 282 278 276 273 269 278 277 280 284 291 289 289 299 306 300 296 279 265 260 260 268 270 266 274 281 282 299 316 325 311 307
311 310 310 311 312 311 313 316 317 319 302 302 305 317 306 301 280 282 281 274 267 270 275 279 281 278 277 282 285 296 303 287 303 286 263 260 269 270 272 272 277 282 288 305 319 327 315
310 307 308 309 311 311 312 316 320 321 316 340 313 291 288 294 294 301 290 274 272 274 271 272 278 288 283 280 284 289 302 292 286 296 281 271 271 270 269 274 278 285 296 297 303 312 312
307 305 303 304 305 307 309 313 320 326 330 320 310 304 291 292 303 317 316 283 275 277 273 275 282 286 290 289 293 301 294 299 297 298 286 276 271 275 268 273 280 281 288 292 297 305 305
304 304 301 301 301 303 306 310 318 328 339 329 314 304 299 293 307 306 319 282 267 269 265 277 284 284 291 314 319 310 297 282 296 312 302 281 276 278 272 275 270 286 293 297 296 292 306
304 304 304 304 304 307 313 318 323 325 328 331 335 315 305 294 280 268 285 275 266 272 266 265 279 291 297 294 286 285 286 277 276 280 299 290 280 275 269 268 282 286 298 310 308 296 303
302 302 305 306 306 306 307 311 318 321 320 337 343 349 311 298 295 282 287 285 286 278 272 263 284 296 292 291 288 282 278 280 273 270 279 292 286 273 275 272 273 287 297 311 320 293 304
297 298 300 305 307 306 303 300 305 311 314 322 352 3 319 292 283 287 293 301 300 286 279 273 272 279 288 281 284 283 280 283 268 264 266 269 281 267 271 275 281 289 297 303 299 309 314
294 292 291 292 295 296 301 300 294 300 309 328 10 13 328 295 255 298 277 285 292 299 290 293 288 282 282 285 284 288 276 271 273 273 272 272 270 268 275 275 272 291 292 289 300 309 321
293 289 287 286 285 282 281 279 291 286 303 348 17 348 335 305 274 288 240 236 227 214 273 292 297 292 287 286 289 287 279 283 272 269 273 267 277 281 282 284 297 288 285 289 303 304 309